Location: Shenandoah County Park
(38.9356°N, 78.4524°W)
Time: 11:19:50
(UTC-05:00)

ISS - Visible Passes

Search period start: 03 December 2022 00:00
Search period end: 13 December 2022 00:00
Orbit: 414 x 420 km, 51.6° (Epoch: 03 December)

Date Brightness Start Highest point End Pass type
(mag) Time Alt. Az. Time Alt. Az. Time Alt. Az.
03 Dec -2.8 18:05:54 10° NNW 18:08:51 28° NNE 18:09:13 27° NE visible
04 Dec -2.2 17:18:00 10° NNW 17:20:33 20° NNE 17:23:07 10° ENE visible
04 Dec -2.5 18:54:16 10° WNW 18:56:37 40° WNW 18:56:37 40° WNW visible
05 Dec -3.9 18:06:06 10° NW 18:09:26 72° NE 18:11:19 24° ESE visible
06 Dec -3.3 17:18:02 10° NW 17:21:13 41° NNE 17:24:25 10° ESE visible
06 Dec -1.2 18:55:17 10° W 18:57:47 20° SW 18:59:27 14° SSW visible
07 Dec -2.1 18:06:39 10° WNW 18:09:43 35° SW 18:12:47 10° SSE visible
08 Dec -3.3 17:18:16 10° WNW 17:21:35 66° SW 17:24:53 10° SE visible
09 Dec -0.3 18:08:24 10° WSW 18:09:42 12° SW 18:10:59 10° SSW visible
10 Dec -0.7 17:19:02 10° W 17:21:37 21° SW 17:24:12 10° S visible
